sat.trackr.live / text

‹ back to catalog

STARLINK-11570 [DTC]

NORAD 62992 · 2025-031M

PAYLOAD ACTIVE UNKNOWN

§ Identity

Operator
Country
US
Launch date
2025-02-11
Launch site
AFETR
Launch vehicle
Mass (kg)
RCS (m²)

Purposes: comms

External: N2YO · Heavens-Above · Gunter

§ Orbital elements

Epoch: 2026-09-21T16:25:20.578944Z

Period
91.67 min
Inclination
43.0155°
Eccentricity
0.0002866
Mean motion
15.70876371 rev/d
Perigee alt
354.5 km
Apogee alt
358.3 km
Semi-major
6,734.5 km
B*
1.3809e-3
RAAN
260.3824°
Arg perigee
270.4371°
Mean anomaly
89.6168°
Rev number
9,355

§ Raw data

STARLINK-11570 [DTC]1 62992U 25031M   26264.68426596  .00180941  00000+0  13809-2 0  99902 62992  43.0155 260.3824 0002866 270.4371  89.6168 15.70876371 93554

JSON: /api/v1/satellites/62992 · /tle

For live sub-satellite position, see the globe view (requires WebGL).

§ Visibility from observer

Set your observer location to see the next 7 days of passes ≥ 10°. The values pass through the URL so the page stays shareable.

No JS? Fill the form by hand. The geolocation button needs JavaScript.